FW1312 Weather Reports


Display with metric or nautical units.
time (UTC)temp
F
wind
direction
speed
MPH
gust
MPH
rain 1hr
in
rain 24hr
in
rain mn
in
humidity
%
barometer
mb
20260905050009 79 156 2.0 6.0 0.00 0.03 0.00 77 1012.5
20260905044552 79 171 1.0 4.0 0.00 0.03 0.03 77 1012.5
20260905043030 80 145 2.0 7.0 0.00 0.03 0.03 76 1012.6
20260905041550 80 136 3.0 7.0 0.00 0.03 0.03 76 1012.5
20260905040019 80 165 3.0 7.0 0.00 0.03 0.03 76 1012.6
20260905034532 80 190 2.0 8.0 0.00 0.03 0.03 75 1012.6
20260905033104 80 134 4.0 8.0 0.00 0.03 0.03 75 1012.5
20260905031520 79 140 3.0 9.0 0.00 0.03 0.03 74 1012.5
20260905030013 79 127 2.0 7.0 0.00 0.03 0.03 74 1012.5
20260905024603 80 111 3.0 7.0 0.00 0.03 0.03 73 1012.4
20260905023042 80 133 3.0 7.0 0.00 0.03 0.03 73 1012.4
20260905021511 81 119 1.0 5.0 0.00 0.03 0.03 73 1012.2
20260905020025 82 173 2.0 5.0 0.00 0.03 0.03 73 1012.0
20260905014510 82 162 3.0 5.0 0.00 0.03 0.03 73 1011.8
20260905013049 83 139 2.0 7.0 0.00 0.03 0.03 73 1011.8
20260905011513 84 143 2.0 6.0 0.00 0.03 0.03 73 1011.4
20260905010028 85 123 3.0 5.0 0.00 0.03 0.03 73 1011.3
20260905004549 86 140 2.0 3.0 0.00 0.03 0.03 74 1011.1
20260905003039 87 131 3.0 7.0 0.00 0.03 0.03 75 1011.0
20260905001523 87 163 1.0 7.0 0.00 0.03 0.03 76 1011.0
20260905000034 88 135 3.0 10.0 0.00 0.03 0.03 77 1011.0
20260904234513 89 132 6.0 10.0 0.00 0.04 0.03 78 1011.0
20260904233049 89 103 4.0 9.0 0.00 0.04 0.03 79 1011.0
20260904231528 89 113 6.0 11.0 0.00 0.04 0.03 80 1011.0
20260904230050 89 147 7.0 12.0 0.00 0.04 0.03 82 1011.0
20260904224514 89 121 4.0 10.0 0.00 0.04 0.03 83 1010.9
20260904223100 89 149 4.0 9.0 0.00 0.04 0.03 84 1011.1
20260904221532 89 140 5.0 14.0 0.00 0.04 0.03 84 1011.1
20260904220001 89 153 3.0 10.0 0.00 0.04 0.03 85 1011.1
20260904214509 88 160 4.0 13.0 0.00 0.05 0.03 86 1011.5
20260904213052 88 145 4.0 13.0 0.00 0.05 0.03 86 1011.5
20260904211513 89 138 6.0 11.0 0.00 0.05 0.03 87 1011.8
20260904210026 89 160 5.0 15.0 0.00 0.05 0.03 87 1011.8
20260904204508 89 146 5.0 12.0 0.00 0.05 0.03 88 1011.9
20260904203017 89 80 9.0 18.0 0.00 0.05 0.03 89 1012.1
20260904201502 89 105 6.0 13.0 0.00 0.05 0.03 89 1012.2
20260904200110 89 126 5.0 14.0 0.00 0.05 0.03 90 1012.2
20260904194544 88 213 3.0 10.0 0.00 0.05 0.03 91 1012.2
20260904193021 87 113 9.0 17.0 0.00 0.05 0.03 91 1012.5
20260904191518 87 115 8.0 11.0 0.00 0.05 0.03 91 1012.9
20260904190009 86 121 5.0 12.0 0.00 0.05 0.03 92 1013.1
20260904184533 86 138 2.0 10.0 0.00 0.06 0.03 92 1013.3
20260904183022 87 156 4.0 10.0 0.00 0.06 0.03 92 1013.3
20260904181557 87 117 3.0 11.0 0.00 0.06 0.03 93 1013.5
20260904180036 88 200 5.0 11.0 0.00 0.06 0.03 93 1013.4
20260904174557 87 219 5.0 15.0 0.00 0.23 0.03 94 1013.4
20260904173021 86 216 4.0 10.0 0.00 0.23 0.03 95 1013.6
20260904171516 85 165 4.0 10.0 0.00 0.23 0.03 95 1014.0
20260904170043 84 134 2.0 7.0 0.00 0.23 0.03 95 1014.2
20260904164559 83 79 2.0 5.0 0.00 0.35 0.03 94 1014.1
20260904163045 82 355 1.0 4.0 0.01 0.35 0.03 94 1014.1
20260904161524 81 5 2.0 4.0 0.01 0.35 0.03 94 1014.2
20260904160115 82 342 2.0 4.0 0.01 0.35 0.03 93 1014.2
20260904154541 82 258 2.0 4.0 0.01 0.44 0.03 94 1014.3
20260904153012 82 127 1.0 6.0 0.00 0.43 0.02 94 1014.2
20260904151555 82 88 3.0 7.0 0.00 0.43 0.02 94 1014.0
20260904150015 81 155 3.0 7.0 0.00 0.43 0.02 94 1014.0
20260904144543 81 181 2.0 8.0 0.00 0.44 0.02 93 1014.0
20260904143021 81 137 3.0 8.0 0.00 0.44 0.02 94 1014.1
20260904141505 81 134 3.0 8.0 0.00 0.44 0.02 94 1013.8
20260904140030 80 130 2.0 6.0 0.00 0.44 0.02 94 1013.8
20260904134501 79 85 2.0 8.0 0.00 0.45 0.02 93 1013.7
20260904133008 79 93 3.0 8.0 0.00 0.45 0.02 93 1013.6
20260904131537 78 75 2.0 5.0 0.00 0.45 0.02 93 1013.5
20260904130024 78 83 1.0 6.0 0.00 0.45 0.02 93 1013.3
20260904124525 78 103 2.0 6.0 0.00 0.45 0.02 93 1013.1
20260904123005 77 110 2.0 4.0 0.00 0.45 0.02 93 1013.0
20260904121555 77 115 1.0 4.0 0.00 0.45 0.02 93 1012.9
20260904120011 77 126 2.0 6.0 0.00 0.45 0.02 93 1012.5
20260904114529 77 101 1.0 6.0 0.00 0.45 0.02 93 1012.5
20260904113102 77 99 3.0 6.0 0.00 0.45 0.02 93 1012.4
20260904111529 77 117 2.0 4.0 0.00 0.45 0.02 93 1012.3
20260904110018 77 109 2.0 4.0 0.00 0.45 0.02 93 1012.3
20260904104549 77 130 1.0 3.0 0.00 0.45 0.02 93 1012.4